294P/LINEAR (2025)

Japanese version
Home page
Updated on March 4, 2025

---------------------------------------------------------------------

* Profile

* Orbital Elements

Epoch 2025 May 5.0 TT = JDT 2460800.5
T 2025 Aug. 11.18991 TT                                 Pike
q   1.2730672            (2000.0)            P               Q
n   0.17293880     Peri.  237.58187     -0.96121568     +0.14467397
a   3.1906151      Node   309.60042     +0.01110090     -0.83038529
e   0.6009963      Incl.   17.74262     -0.27557428     -0.53807965
P   5.70
From 48 observations 2020 June 24-2025 Feb. 26, mean residual 0".3.

* Magnitudes Graph

        H = 16.5  G = 0.15

---------------------------------------------------------------------

The orbital elements are published on M.P.E.C. 2025-D254.
The magnitudes graphs are made with Comet for Windows.

---------------------------------------------------------------------

Copyright(C) Seiichi Yoshida (comet@aerith.net). All rights reserved.